ANGELS

Last updated on Sun Apr 27 2025 00:02:35 GMT+0000 (Coordinated Universal Time)

1 44876U 19092D 25116.09826952 .00039283 00000+0 92334-3 0 9994 2 44876 97.4597 313.4661 0005918 284.7267 75.3324 15.41880095297288
UTC large
Height (km)
Speed (km/s)
/
Latitude / Longitude
Inclination (degrees)
Orbital Period (minutes)
Azimuth
Elevation
Range (km)
Doppler Factor

Next 0 passes for location: London (51.5072 / 0.1276)

Sorry there are no passes over London.
ANGELS